Location: Bacharowice
(49.9333°N, 19.5833°E)
Time: 07:56:00
(UTC+00:00)

Cosmos 1908 Rocket - Pass Details

Date: 29 September 2021
Orbit: 605 x 633 km, 82.5° (Epoch: 27 October)

Event Time Altitude Azimuth Distance (km) Brightness Sun altitude
Rises 03:35:16 0° 353° (N) 2,908 7.0 -11.0°
Reaches altitude 10° 03:37:34 10° 359° (N) 1,992 6.3 -10.6°
Maximum altitude 03:41:52 52° 76° (ENE) 770 4.5 -9.9°
Drops below altitude 10° 03:46:07 10° 153° (SSE) 1,961 6.4 -9.3°
Sets 03:48:21 0° 158° (SSE) 2,857 7.2 -8.9°
